Regional Weather Roundup
Issued by NWS

Home | Current Version | Previous Version | Text Only | Print | Product List | Glossary On
Versions: 1 2 3 4 5 6 7 8 9 10 11 12 13 14 15 16 17 18 19 20 21 22 23 24 25 26 27 28 29 30 31 32 33 34 35 36 37 38 39 40 41 42 43 44 45 46 47 48 49 50
000
ASUS44 KFWD 290503
RWRTX
NORTH TEXAS HOURLY WEATHER ROUNDUP
NATIONAL WEATHER SERVICE FORT WORTH TX
1200 AM CDT SAT APR 29 2017

NOTE: "FAIR" INDICATES FEW OR NO CLOUDS BELOW 12,000 FEET WITH NO
SIGNIFICANT WEATHER AND/OR OBSTRUCTIONS TO VISIBILITY.

TXZ118-119-290600-
DALLAS/FORT WORTH METROPLEX

CITY           SKY/WX    TMP DP  RH WIND       PRES   REMARKS
DFW AIRPORT    CLOUDY    80  73  79 SE18      29.59F
DALLAS LOVE    CLOUDY    80  72  76 SE21G29   29.61F
FTW MEACHAM    PTCLDY    81  71  71 SE20G26   29.59S
DAL-EXECUTIVE  CLOUDY    78  74  87 SE13      29.61F FOG
FTW-ALLIANCE   MOCLDY    80  70  71 S14G21    29.59S
FTW-NAS-JRB    PTCLDY    81  69  67 S18       29.60S
FTW-SPINKS     PTCLDY    78  69  73 SE14G23   29.62S HAZE
ARLINGTON      MOCLDY    79  70  74 SE17      29.61S
GRAND PRAIRIE  MOCLDY    79  69  72 SE8       29.62F
ADDISON        CLOUDY    78  72  81 SE18G24   29.63F
MESQUITE       CLOUDY    77  71  82 SE15G23   29.63F
LANCASTER      PTCLDY    77  72  85 SE13G21   29.64S
$$

TXZ091>094-102>105-117-120-121-131>134-290600-
NORTH CENTRAL TEXAS

CITY           SKY/WX    TMP DP  RH WIND       PRES   REMARKS
SHRMAN/DENISON MOCLDY    77  72  83 SE15G23   29.63F
GAINESVILLE    PTCLDY    74  69  83 SE10      29.63F
BOWIE          CLOUDY    75  69  83 E5        29.60F
BRIDGEPORT     CLOUDY    74  68  81 SE9       29.61F
DECATUR        MOCLDY    78  69  73 SE12G17   29.61S
DENTON         MOCLDY    80  71  74 SE16      29.59F
MCKINNEY       CLOUDY    79  73  82 S20G29    29.62F
BONHAM         CLOUDY    77  72  83 SE14      29.64S
GREENVILLE     MOCLDY    81  72  74 SE13G22   29.66S
ROCKWALL       CLOUDY    78  72  81 S18       29.64S
TERRELL        MOCLDY    78  70  76 SE15G22   29.65S
WAXAHACHIE     PTCLDY    77  72  84 SE10G20   29.64S
CLEBURNE       MOCLDY    77  72  83 S16G25    29.62S
GRANBURY       CLOUDY    81  66  61 SE8G17    29.61S
$$

TXZ083>090-098>101-113>116-127>130-139>142-154-155-290600-
WESTERN NORTH TEXAS

CITY           SKY/WX    TMP DP  RH WIND       PRES   REMARKS
WICHITA FALLS  CLOUDY    74  67  78 E9        29.58F
VERNON         CLOUDY    75  63  66 E10       29.56F
ABILENE        PTCLDY    75  67  76 SE13      29.56F
ABILENE-DYESS  PTCLDY    77  67  71 SE16      29.53F
GRAHAM         MOCLDY    75  69  79 E7        29.56S
BRECKENRIDGE   PTCLDY    77  66  69 SE8       29.56F HAZE
CISCO          CLOUDY    75  68  78 SE17      29.58F
RANGER         MOCLDY    76  68  76 SE13      29.60S
MINERAL WELLS  MOCLDY    78  67  68 SE15G24   29.57S
STEPHENVILLE   MOCLDY    76  68  74 SE12G18   29.63S
COMANCHE       CLOUDY    76  68  75 SE13G20   29.60S
COLEMAN        PTCLDY    78  65  64 SE16G23   29.58S
$$

TXZ143>147-156>162-174-175-290600-
CENTRAL TEXAS

CITY           SKY/WX    TMP DP  RH WIND       PRES   REMARKS
WACO           CLOUDY    78  72  81 SE22G28   29.62S
WACO-MCGREGOR  CLEAR     78  71  79 SE16G23   29.63R
HILLSBORO      PTCLDY    78  72  82 SE14G22   29.63S
CORSICANA      CLOUDY    79  72  79 SE14      29.67S
MEXIA          PTCLDY    76  71  83 SE10G17   29.66R
HEARNE         CLOUDY    77  74  90 SE12G18   29.66R
CAMERON        CLOUDY    78  72  81 SE10G18   29.65S
TEMPLE         CLOUDY    77  72  84 SE20G26   29.63F
KILLEEN        CLOUDY    77  71  81 SE22G29   29.60F
KILLEEN-SKYLRK CLOUDY    77  71  82 SE17      29.62F
FORT HOOD      CLOUDY    76  70  82 SE20G25   29.59S
GATESVILLE     MOCLDY    79  70  73 SE12G21   29.64S
HAMILTON       MOCLDY    76  69  77 S17G23    29.62S
LAMPASAS       CLOUDY    78  73  83 SE14G20   29.61S
$$

TXZ095>097-106>112-122>126-135>138-148>153-164>167-290600-
EAST TEXAS

CITY           SKY/WX    TMP DP  RH WIND       PRES   REMARKS
PARIS          MOCLDY    79  70  73 S16G24    29.67S
SULPHUR SPRNGS CLOUDY    80  71  75 S13G18    29.69S
MOUNT PLEASANT PTCLDY    80  69  70 S12G20    29.72S
GILMER         CLOUDY    79  71  77 SE12      29.71S
MINEOLA        CLOUDY    79  72  78 SE12G18   29.68F
TYLER          CLOUDY    79  73  82 S18G25    29.69S
LONGVIEW       CLOUDY    80  73  79 S17G24    29.70R
MARSHALL       CLOUDY    77  72  83 S13G20    29.74S
ATHENS         CLOUDY    77  70  78 S12       29.67S
PALESTINE      CLOUDY    79  73  82 SE9       29.69S
JACKSONVILLE   CLOUDY    78  73  84 S14G23    29.71S
HENDERSON      CLOUDY    78  71  77 S8G21     29.72S
CENTER         CLOUDY    82  78  85 SE14G29   29.75S HX  91
NACOGDOCHES    CLOUDY    79  72  78 S16G24    29.70F
LUFKIN         CLOUDY    78  73  84 SE15      29.71F
$$

SUPPLEMENTAL OBSERVATIONS (CENTRAL)

CITY           SKY/WX    TMP DP  RH WIND       PRES   REMARKS
$$

SUPPLEMENTAL OBSERVATIONS (WEST)

CITY           SKY/WX    TMP DP  RH WIND       PRES   REMARKS
$$

SUPPLEMENTAL OBSERVATIONS (EAST)

CITY           SKY/WX    TMP DP  RH WIND       PRES   REMARKS
$$

SUPPLEMENTAL OBSERVATIONS ARE A COLLECTION OF AUTOMATED INSTRUMENTS
THAT ARE MAINTAINED BY A VARIETY OF FEDERAL AND STATE AGENCIES.
CERTAIN ELEMENTS...SUCH AS HUMIDITY VALUES AND SUSTAINED WIND
SPEEDS...MAY BE APPROXIMATED.




USA.gov is the U.S. government's official web portal to all federal, state and local government web resources and services.